Location: Middle Street
(51.7167°N, 0.0333°E)
Time: 22:59:01
(UTC+00:00)

Cosmos 1680 Rocket - Pass Details

Date: 20 January 2021
Orbit: 761 x 780 km, 74.1° (Epoch: 01 March)

Event Time Altitude Azimuth Distance (km) Brightness Sun altitude
Rises 18:14:54 0° 336° (NNW) 3,256 6.9 -16.1°
Reaches altitude 10° 18:17:22 10° 342° (NNW) 2,322 6.1 -16.5°
Maximum altitude 18:22:31 52° 59° (ENE) 947 3.6 -17.3°
Enters shadow 18:26:39 15° 133° (SE) 1,946 5.2 -17.9°
